Weather History for Pensacola NAS, FL

Change the Weather History Date:

Wednesday, October 10, 2012

  Actual Average Record
Temperature  
Mean Temperature 69 °F -  
Max Temperature 82 °F 78 °F 87 °F (2007)
Min Temperature 57 °F 61 °F 44 °F (2000)
Cooling Degree Days 4    
Growing Degree Days 19 (Base 50)    
Moisture  
Dew Point 60 °F    
Average Humidity 77    
Maximum Humidity 100    
Minimum Humidity 49    
Precipitation  
Precipitation 0.00 in - - ()
Sea Level Pressure  
Sea Level Pressure 30.12 in    
Wind  
Wind Speed 4 mph (NNW)    
Max Wind Speed 9 mph    
Max Gust Speed -    
Visibility 10 miles    
Events      
Averages and records for this station are not official NWS values.
T = Trace of Precipitation, MM = Missing Value Source: NWS Daily Summary

Daily Weather History Graph

Daily Weather History Graph

Search for Another Location

Airport:

Trip Planner

Search our weather history database for the weather conditions in past years. The results will help you decide how hot, cold, wet, or windy it might be!

Date:

Astronomy

Oct. 10, 2012 Rise Set
Actual Time 6:48 AM CDT 6:23 PM CDT
Civil Twilight 6:24 AM CDT 6:47 PM CDT
Nautical Twilight 5:56 AM CDT 7:15 PM CDT
Astronomical Twilight 5:28 AM CDT 7:42 PM CDT
Moon 1:45 AM CDT (10/10) 3:07 PM CDT (10/10)
Length of Visible Light 12h 22m
Length of Day
11h 34m
Waning Crescent, 27% of the Moon is Illuminated
Oct 10
Waning Crescent
Oct 15
New
Oct 21
First Quarter
Oct 29
Full
Nov 6
Last Quarter

Hourly Weather History & Observations

Time (CDT) Temp. Heat Index Dew Point Humidity Pressure Visibility Wind Dir Wind Speed Gust Speed Precip Events Conditions
12:56 AM 57.9 °F - 57.0 °F 97% 30.07 in 10.0 mi Calm Calm - 0.00 in   Clear
1:56 AM 57.0 °F - 57.0 °F 100% 30.07 in 10.0 mi NW 3.5 mph - N/A   Clear
2:56 AM 59.0 °F - 57.9 °F 96% 30.08 in 10.0 mi NNW 4.6 mph - N/A   Clear
3:56 AM 59.0 °F - 55.0 °F 87% 30.09 in 10.0 mi NNW 5.8 mph - N/A   Clear
4:56 AM 57.9 °F - 55.0 °F 90% 30.11 in 10.0 mi NNW 4.6 mph - N/A   Scattered Clouds
5:56 AM 57.9 °F - 55.0 °F 90% 30.12 in 10.0 mi NNW 4.6 mph - N/A   Partly Cloudy
6:56 AM 57.9 °F - 55.9 °F 93% 30.14 in 10.0 mi NNW 3.5 mph - N/A   Partly Cloudy
7:56 AM 63.0 °F - 57.9 °F 84% 30.15 in 10.0 mi NNW 4.6 mph - N/A   Partly Cloudy
8:56 AM 69.1 °F - 60.1 °F 73% 30.16 in 10.0 mi NNE 4.6 mph - N/A   Partly Cloudy
9:56 AM 73.0 °F - 61.0 °F 66% 30.16 in 10.0 mi Variable 3.5 mph - N/A   Clear
10:56 AM 77.0 °F - 60.1 °F 56% 30.16 in 10.0 mi NW 9.2 mph - N/A   Clear
11:56 AM 78.1 °F - 61.0 °F 56% 30.14 in 10.0 mi NW 4.6 mph - N/A   Clear
12:56 PM 81.0 °F 81.6 °F 60.1 °F 49% 30.12 in 10.0 mi NNE 3.5 mph - N/A   Clear
1:56 PM 79.0 °F - 64.9 °F 62% 30.10 in 10.0 mi South 9.2 mph - N/A   Partly Cloudy
2:56 PM 79.0 °F - 63.0 °F 58% 30.09 in 10.0 mi South 5.8 mph - N/A   Partly Cloudy
3:56 PM 79.0 °F - 63.0 °F 58% 30.08 in 10.0 mi SSW 4.6 mph - N/A   Partly Cloudy
4:56 PM 79.0 °F - 64.0 °F 60% 30.08 in 10.0 mi SW 4.6 mph - N/A   Partly Cloudy
5:56 PM 78.1 °F - 62.1 °F 58% 30.09 in 10.0 mi North 4.6 mph - N/A   Partly Cloudy
6:56 PM 70.0 °F - 64.0 °F 81% 30.11 in 10.0 mi North 3.5 mph - N/A   Partly Cloudy
7:56 PM 71.1 °F - 62.1 °F 73% 30.12 in 10.0 mi North 3.5 mph - N/A   Clear
8:56 PM 66.0 °F - 62.1 °F 87% 30.14 in 10.0 mi Calm Calm - N/A   Clear
9:56 PM 66.9 °F - 63.0 °F 87% 30.15 in 10.0 mi North 3.5 mph - N/A   Clear
10:56 PM 63.0 °F - 61.0 °F 93% 30.16 in 10.0 mi Calm Calm - N/A   Clear
11:56 PM 61.0 °F - 61.0 °F 100% 30.16 in 10.0 mi Calm Calm - N/A   Clear